Clawson, MI

10:47 PM EST on December 07, 2016 (GMT -0500)
Troy

Weather History for KVLL - July, 2013

Change the Weather History Date:

Tuesday, July 2, 2013

  Actual Average (KDET) Record (KDET)
Temperature  
Mean Temperature 66 °F -  
Max Temperature 73 °F 82 °F 97 °F (2011)
Min Temperature 60 °F 63 °F 48 °F (1988)
Cooling Degree Days 2    
Growing Degree Days 16 (Base 50)    
Moisture  
Dew Point 59 °F    
Average Humidity 74    
Maximum Humidity 82    
Minimum Humidity 63    
Precipitation  
Precipitation 0.00 in - - ()
Sea Level Pressure  
Sea Level Pressure 30.08 in    
Wind  
Wind Speed 6 mph (ENE)    
Max Wind Speed 9 mph    
Max Gust Speed 16 mph    
Visibility 10 miles    
Events Rain    
Averages and records for this station are not official NWS values.
T = Trace of Precipitation, MM = Missing Value Source: NWS Daily Summary

Daily Weather History Graph

Daily Weather History Graph

Search for Another Location

Airport or City:

Trip Planner

Search our weather history database for the weather conditions in past years. The results will help you decide how hot, cold, wet, or windy it might be!

Date:

Astronomy

Jul. 02, 2013 Rise Set
Actual Time 5:59 AM EDT 9:13 PM EDT
Civil Twilight 5:25 AM EDT 9:48 PM EDT
Nautical Twilight 4:40 AM EDT 10:33 PM EDT
Astronomical Twilight 3:45 AM EDT 11:27 PM EDT
Moon 2:05 AM EDT (7/2) 4:23 PM EDT (7/2)
Length of Visible Light 16h 23m
Length of Day
15h 14m
Waning Crescent, 26% of the Moon is Illuminated
Jul 2
Waning Crescent
Jul 8
New
Jul 15
First Quarter
Jul 22
Full
Jul 29
Last Quarter

Hourly Weather History & Observations

Time (EDT) Temp. Dew Point Humidity Pressure Visibility Wind Dir Wind Speed Gust Speed Precip Events Conditions
12:14 AM 60.8 °F 55.4 °F 82% 30.07 in 10.0 mi NNE 4.6 mph - N/A   Overcast
12:35 AM 60.8 °F 55.0 °F 81% 30.05 in 10.0 mi NNE 5.8 mph - N/A   Overcast
12:55 AM 61.2 °F 55.2 °F 81% 30.06 in 10.0 mi NNE 9.2 mph - N/A   Overcast
1:15 AM 61.9 °F 55.4 °F 79% 30.07 in 10.0 mi NNE 4.6 mph - N/A   Overcast
1:35 AM 62.1 °F 55.6 °F 79% 30.08 in 10.0 mi NNE 3.5 mph - N/A   Overcast
1:55 AM 62.2 °F 55.8 °F 79% 30.08 in 10.0 mi North 3.5 mph - N/A   Overcast
2:15 AM 62.2 °F 55.9 °F 80% 30.08 in 10.0 mi NNE 4.6 mph - N/A   Overcast
2:35 AM 62.6 °F 55.8 °F 78% 30.07 in 10.0 mi ENE 5.8 mph - N/A   Overcast
2:55 AM 62.8 °F 55.8 °F 78% 30.07 in 10.0 mi NE 8.1 mph - N/A   Overcast
3:14 AM 62.8 °F 56.1 °F 79% 30.06 in 10.0 mi NE 8.1 mph - N/A   Overcast
3:35 AM 62.8 °F 55.9 °F 78% 30.06 in 10.0 mi NE 4.6 mph - N/A   Overcast
3:55 AM 62.6 °F 56.3 °F 80% 30.06 in 10.0 mi NE 8.1 mph - N/A   Scattered Clouds
4:15 AM 62.6 °F 56.3 °F 80% 30.06 in 10.0 mi NE 6.9 mph - N/A   Scattered Clouds
4:35 AM 62.2 °F 56.7 °F 82% 30.06 in 10.0 mi NE 5.8 mph - N/A Rain Light Rain
4:55 AM 62.1 °F 56.3 °F 81% 30.06 in 10.0 mi NE 6.9 mph - N/A   Clear
5:15 AM 62.1 °F 56.3 °F 81% 30.07 in 10.0 mi NE 5.8 mph - N/A   Mostly Cloudy
5:35 AM 62.1 °F 56.5 °F 82% 30.07 in 10.0 mi NE 6.9 mph - N/A   Overcast
5:55 AM 62.2 °F 56.3 °F 81% 30.06 in 10.0 mi NE 8.1 mph - N/A   Overcast
6:15 AM 62.4 °F 55.9 °F 79% 30.07 in 10.0 mi NE 8.1 mph - N/A   Overcast
6:35 AM 62.6 °F 55.8 °F 78% 30.08 in 10.0 mi NE 5.8 mph - N/A   Overcast
6:55 AM 62.8 °F 56.3 °F 79% 30.08 in 10.0 mi NE 8.1 mph - N/A   Overcast
7:15 AM 63.0 °F 56.3 °F 79% 30.08 in 10.0 mi NE 6.9 mph - N/A   Overcast
7:35 AM 63.3 °F 56.1 °F 77% 30.09 in 10.0 mi NE 9.2 mph - N/A   Overcast
7:55 AM 63.5 °F 56.8 °F 79% 30.09 in 10.0 mi NE 8.1 mph - N/A   Overcast
8:15 AM 64.0 °F 57.4 °F 79% 30.09 in 10.0 mi NE 8.1 mph - N/A   Overcast
8:34 AM 64.0 °F 57.2 °F 78% 30.09 in 10.0 mi NE 9.2 mph 16.1 mph N/A   Mostly Cloudy
8:55 AM 64.6 °F 57.2 °F 77% 30.10 in 10.0 mi ENE 9.2 mph 16.1 mph N/A   Overcast
9:15 AM 64.8 °F 57.2 °F 76% 30.10 in 10.0 mi ENE 8.1 mph - N/A   Overcast
9:35 AM 65.8 °F 57.6 °F 75% 30.10 in 10.0 mi NE 6.9 mph - N/A   Overcast
9:55 AM 66.7 °F 58.3 °F 74% 30.09 in 10.0 mi NE 9.2 mph - N/A   Overcast
10:15 AM 66.6 °F 57.6 °F 73% 30.09 in 10.0 mi NE 8.1 mph - N/A   Overcast
10:35 AM 66.4 °F 57.9 °F 74% 30.10 in 10.0 mi NNE 6.9 mph - N/A   Overcast
10:55 AM 66.4 °F 57.7 °F 74% 30.10 in 10.0 mi NE 9.2 mph - N/A   Overcast
11:15 AM 68.2 °F 58.8 °F 72% 30.10 in 10.0 mi NNE 9.2 mph - N/A   Overcast
11:35 AM 68.2 °F 58.1 °F 70% 30.10 in 10.0 mi ENE 5.8 mph - N/A   Overcast
11:55 AM 69.8 °F 58.8 °F 68% 30.10 in 10.0 mi ENE 6.9 mph - N/A   Overcast
12:14 PM 71.2 °F 59.2 °F 66% 30.10 in 10.0 mi East 6.9 mph - N/A   Overcast
12:35 PM 70.7 °F 59.4 °F 67% 30.10 in 10.0 mi ENE 3.5 mph - N/A   Overcast
12:55 PM 70.7 °F 59.0 °F 66% 30.10 in 10.0 mi East 3.5 mph - N/A   Overcast
1:15 PM 71.4 °F 59.2 °F 65% 30.10 in 10.0 mi East 6.9 mph - N/A   Overcast
1:35 PM 71.8 °F 59.5 °F 65% 30.10 in 10.0 mi NNE 4.6 mph - N/A   Overcast
1:55 PM 72.1 °F 60.1 °F 66% 30.09 in 10.0 mi East 5.8 mph - N/A   Overcast
2:15 PM 72.5 °F 60.1 °F 65% 30.09 in 10.0 mi NE 6.9 mph - N/A   Overcast
2:35 PM 73.2 °F 60.3 °F 64% 30.09 in 10.0 mi ENE 6.9 mph - N/A   Overcast
2:54 PM 73.8 °F 60.3 °F 63% 30.08 in 10.0 mi ENE 3.5 mph - N/A   Overcast
3:15 PM 73.8 °F 60.4 °F 63% 30.08 in 10.0 mi NE 5.8 mph - N/A   Overcast
3:34 PM 73.6 °F 61.3 °F 65% 30.08 in 10.0 mi ENE 8.1 mph - N/A   Overcast
3:55 PM 73.2 °F 60.6 °F 65% 30.08 in 10.0 mi ENE 8.1 mph - N/A   Overcast
4:15 PM 73.0 °F 60.8 °F 65% 30.08 in 10.0 mi East 6.9 mph - N/A   Overcast
4:34 PM 73.4 °F 61.2 °F 65% 30.07 in 10.0 mi East 5.8 mph - N/A   Overcast
4:55 PM 73.6 °F 61.5 °F 66% 30.07 in 10.0 mi East 9.2 mph - N/A   Overcast
5:15 PM 72.9 °F 61.3 °F 67% 30.08 in 10.0 mi East 4.6 mph - N/A   Mostly Cloudy
5:35 PM 72.1 °F 61.2 °F 68% 30.08 in 10.0 mi East 8.1 mph - N/A   Overcast
5:55 PM 72.1 °F 61.2 °F 68% 30.08 in 10.0 mi ESE 8.1 mph - N/A   Overcast
6:15 PM 71.8 °F 61.0 °F 69% 30.08 in 10.0 mi ENE 8.1 mph - N/A   Overcast
6:35 PM 72.5 °F 61.5 °F 68% 30.08 in 10.0 mi East 5.8 mph - N/A   Overcast
6:55 PM 72.5 °F 61.7 °F 69% 30.08 in 10.0 mi ENE 8.1 mph - N/A   Scattered Clouds
7:15 PM 72.1 °F 61.5 °F 69% 30.08 in 10.0 mi East 8.1 mph - N/A   Scattered Clouds
7:35 PM 72.5 °F 61.5 °F 68% 30.08 in 7.0 mi ENE 9.2 mph - N/A   Scattered Clouds
7:55 PM 71.1 °F 60.8 °F 70% 30.09 in 10.0 mi ENE 8.1 mph - N/A   Scattered Clouds
8:14 PM 70.9 °F 60.8 °F 70% 30.09 in 10.0 mi ENE 6.9 mph - N/A   Scattered Clouds
8:35 PM 70.7 °F 60.8 °F 71% 30.08 in 10.0 mi ENE 8.1 mph - N/A   Clear
8:55 PM 70.3 °F 60.8 °F 72% 30.09 in 10.0 mi East 6.9 mph - N/A   Scattered Clouds
9:14 PM 69.8 °F 61.2 °F 74% 30.09 in 10.0 mi East 8.1 mph - N/A   Scattered Clouds
9:35 PM 68.7 °F 60.4 °F 75% 30.09 in 10.0 mi East 5.8 mph - N/A   Scattered Clouds
9:55 PM 68.0 °F 60.1 °F 76% 30.10 in 10.0 mi East 6.9 mph - N/A   Scattered Clouds
10:15 PM 67.6 °F 60.1 °F 77% 30.10 in 10.0 mi NE 4.6 mph - N/A   Scattered Clouds
10:35 PM 67.1 °F 59.9 °F 78% 30.10 in 10.0 mi ENE 8.1 mph - N/A   Clear
10:55 PM 66.7 °F 59.9 °F 79% 30.11 in 10.0 mi NNE 4.6 mph - N/A   Clear
11:15 PM 65.7 °F 59.4 °F 80% 30.11 in 10.0 mi NNE 5.8 mph - N/A   Clear
11:35 PM 66.0 °F 59.0 °F 78% 30.12 in 10.0 mi NE 6.9 mph - N/A   Scattered Clouds
11:55 PM 65.7 °F 59.0 °F 79% 30.11 in 10.0 mi NNE 5.8 mph - N/A   Mostly Cloudy